Location: Derby
(52.9213°N, 1.4761°W)
Time: 17:54:59
(UTC+01:00)

Tiros 1 - Pass Details

Date: 24 May 2025
Orbit: 620 x 651 km, 48.4° (Epoch: 13 June)

Event Time Altitude Azimuth Distance (km) Brightness Sun altitude
Rises 18:20:55 0° 244° (WSW) 2,890 11.4 22.8°
Reaches altitude 10° 18:23:18 10° 237° (WSW) 1,987 10.6 22.4°
Maximum altitude 18:27:36 42° 167° (SSE) 897 8.0 21.8°
Drops below altitude 10° 18:31:55 10° 97° (E) 2,004 9.2 21.1°
Sets 18:34:20 0° 90° (E) 2,917 9.9 20.8°
